Precipitable_Water
0.91 0.92 0.92 0.93 0.94 0.95 0.93 0.91 0.95 0.95 0.98 0.98 1.01 1.01 0.98 1.01 0.98 0.93 0.96 0.94 0.93 0.89
0.84 0.88 0.90 0.93 0.95 0.94 0.97 0.96 0.97 0.97 0.95 0.98 0.99 0.99 1.00 0.98 0.94 0.94 0.94 0.93 0.94 0.90
0.75 0.80 0.84 0.87 0.88 0.88 0.90 0.93 0.95 0.94 0.94 0.94 0.95 0.97 0.95 0.94 0.95 0.93 0.96 0.97 0.95 0.89
0.66 0.72 0.74 0.77 0.82 0.85 0.88 0.90 0.91 0.93 0.92 0.90 0.90 0.93 0.94 0.92 0.97 0.98 0.95 0.91 0.91 0.89
0.58 0.62 0.66 0.69 0.73 0.80 0.83 0.88 0.89 0.92 0.92 0.94 0.93 0.94 0.91 0.88 0.91 0.89 0.88 0.92 0.92 0.92
0.48 0.51 0.55 0.61 0.64 0.69 0.76 0.84 0.89 0.88 0.90 0.91 0.92 0.90 0.91 0.91 0.91 0.89 0.89 0.88 0.86 0.86
0.46 0.44 0.46 0.47 0.51 0.53 0.59 0.67 0.76 0.79 0.83 0.87 0.92 0.94 0.92 0.90 0.88 0.86 0.85 0.86 0.84 0.86
0.41 0.44 0.39 0.37 0.38 0.40 0.44 0.54 0.63 0.71 0.77 0.83 0.87 0.94 0.91 0.89 0.90 0.87 0.85 0.87 0.90 0.92
0.35 0.39 0.46 0.38 0.33 0.36 0.37 0.38 0.48 0.60 0.68 0.76 0.84 0.89 0.89 0.91 0.88 0.89 0.87 0.86 0.91 0.93
0.32 0.33 0.39 0.45 0.43 0.38 0.40 0.40 0.43 0.44 0.56 0.68 0.76 0.83 0.87 0.89 0.89 0.88 0.88 0.88 0.90 0.90
0.30 0.32 0.33 0.39 0.37 0.35 0.41 0.46 0.43 0.40 0.43 0.63 0.73 0.81 0.85 0.86 0.88 0.88 0.89 0.91 0.91 0.90
0.30 0.29 0.31 0.33 0.35 0.35 0.34 0.38 0.38 0.39 0.34 0.49 0.69 0.77 0.79 0.81 0.81 0.83 0.86 0.89 0.90 0.90
0.32 0.30 0.28 0.32 0.33 0.34 0.35 0.35 0.34 0.34 0.33 0.35 0.60 0.72 0.75 0.77 0.78 0.82 0.83 0.86 0.88 0.88
0.29 0.29 0.28 0.30 0.31 0.33 0.33 0.35 0.35 0.34 0.33 0.31 0.47 0.62 0.73 0.77 0.78 0.77 0.79 0.80 0.83 0.87
Wind_Speed
27 28 29 30 30 31 32 33 35 36 37 38 38 38 38 39 39 40 40 39 40 38
25 27 28 29 29 30 31 33 34 35 36 38 38 38 38 38 38 39 39 39 39 39
23 25 26 27 28 29 30 31 33 35 36 36 37 38 39 39 39 39 39 38 39 39
21 23 25 25 26 27 28 29 31 32 35 36 37 37 38 38 38 39 39 40 40 40
19 21 22 23 23 24 25 28 29 30 31 35 36 36 37 37 38 39 39 40 40 40
18 20 20 21 22 23 24 24 26 28 30 31 35 37 38 38 39 39 39 40 41 42
20 21 21 21 22 23 23 24 26 26 28 30 32 35 36 37 38 38 40 41 42 44
19 21 21 21 21 21 22 23 24 25 26 28 29 32 34 36 37 37 39 39 41 42
23 23 23 22 22 22 22 21 22 24 25 26 27 30 31 34 35 36 37 37 38 39
26 25 25 26 26 24 23 23 23 23 25 26 27 28 30 30 33 34 35 36 37 38
25 27 27 27 27 27 27 26 25 24 24 25 25 27 28 29 30 31 32 33 34 35
25 26 27 28 27 26 26 26 26 26 25 24 25 26 27 28 30 30 31 30 29 29
25 26 26 26 27 26 25 24 24 24 24 24 24 25 26 27 27 28 28 28 28 28
27 26 26 27 26 26 26 24 24 24 23 23 23 22 24 26 26 26 26 27 27 27
Wind_Direction
214 215 217 220 223 225 227 228 229 230 231 232 232 233 235 237 237 238 240 241 242 245
214 218 221 224 227 229 230 231 231 231 232 233 234 235 236 237 237 240 240 241 242 244
219 220 224 227 230 232 233 233 233 233 233 234 235 236 237 238 239 240 241 242 243 246
223 225 227 230 232 234 235 235 236 236 235 235 236 237 237 238 239 240 242 245 247 248
225 227 228 230 232 234 236 237 237 238 238 237 237 237 238 239 240 242 244 246 249 250
234 231 231 232 234 236 238 238 238 240 240 240 239 239 240 241 242 244 246 249 251 252
240 239 238 239 238 239 240 241 241 243 243 243 242 241 241 242 244 247 249 252 253 254
243 237 239 241 241 241 242 243 245 245 244 246 245 242 242 243 246 248 252 255 256 256
248 244 240 241 243 243 244 247 247 246 246 247 246 246 246 246 247 251 253 256 257 259
248 246 243 244 244 247 250 250 250 251 249 249 250 249 247 249 251 252 254 258 259 261
250 248 246 245 248 249 250 251 251 251 252 251 251 250 250 251 252 256 255 259 262 263
251 250 248 247 249 248 250 249 249 249 251 253 252 252 252 254 254 256 255 259 261 262
252 250 249 248 247 247 248 248 246 245 250 252 254 255 254 254 253 254 255 257 259 262
249 250 250 248 247 245 246 246 245 248 250 251 252 256 257 255 253 255 255 257 258 260